DAL1638 KJFK-KPBI

Flight info

Callsign DAL1638
Flight time 2h 19m
Altitude 40000
Route WAVEY EMJAY Q167 ZJAAY KALDA Q131 WAALT Y289 DULEE CLMNT2
Aircraft B738/M-SDE2E3FGHIRWXY/LB1

Departure

Time 2026-05-05 14:08
Airport John F. Kennedy International Airport (KJFK)

Arrival

Time 2026-05-05 16:28
Airport Palm Beach International Airport (KPBI)
Time Latitude Longitude Altitude Speed Heading
2026-05-05 13:47 40.64068 -73.78117 19 ft 0 kts 239°
2026-05-05 13:57 40.64068 -73.78116 19 ft 1 kts 239°
2026-05-05 13:57 40.64079 -73.78092 22 ft 3 kts 232°
2026-05-05 13:57 40.64094 -73.78071 22 ft 3 kts 220°
2026-05-05 13:57 40.64112 -73.78054 20 ft 3 kts 205°
2026-05-05 13:58 40.64132 -73.78045 20 ft 3 kts 179°
2026-05-05 13:58 40.64148 -73.78049 19 ft 0 kts 151°
2026-05-05 14:01 40.64145 -73.78047 19 ft 3 kts 151°
2026-05-05 14:01 40.64107 -73.78019 19 ft 9 kts 150°
2026-05-05 14:01 40.64035 -73.77966 19 ft 11 kts 153°
2026-05-05 14:02 40.63951 -73.77943 19 ft 15 kts 173°
2026-05-05 14:02 40.63838 -73.77924 19 ft 18 kts 173°
2026-05-05 14:02 40.63705 -73.77903 20 ft 18 kts 173°
2026-05-05 14:02 40.63598 -73.77881 19 ft 14 kts 159°
2026-05-05 14:03 40.63531 -73.77772 20 ft 13 kts 120°
2026-05-05 14:03 40.63528 -73.77690 22 ft 10 kts 28°
2026-05-05 14:03 40.63614 -73.77624 19 ft 21 kts 31°
2026-05-05 14:03 40.63778 -73.77495 20 ft 33 kts 31°
2026-05-05 14:04 40.63960 -73.77354 19 ft 28 kts 31°
2026-05-05 14:04 40.64120 -73.77228 22 ft 26 kts 31°
2026-05-05 14:04 40.64269 -73.77111 20 ft 24 kts 30°
2026-05-05 14:04 40.64403 -73.77009 19 ft 19 kts 23°
2026-05-05 14:05 40.64521 -73.76975 19 ft 16 kts 22°
2026-05-05 14:05 40.64616 -73.76906 19 ft 15 kts 28°
2026-05-05 14:05 40.64707 -73.76841 19 ft 15 kts 32°
2026-05-05 14:05 40.64785 -73.76775 20 ft 12 kts 33°
2026-05-05 14:06 40.64883 -73.76694 21 ft 24 kts 31°
2026-05-05 14:06 40.65036 -73.76574 20 ft 20 kts 29°
2026-05-05 14:06 40.65101 -73.76492 21 ft 12 kts 91°
2026-05-05 14:06 40.65077 -73.76420 22 ft 8 kts 120°
2026-05-05 14:07 40.65050 -73.76360 21 ft 8 kts 126°
2026-05-05 14:07 40.65015 -73.76361 21 ft 0 kts 212°
2026-05-05 14:08 40.64957 -73.76407 21 ft 36 kts 211°
2026-05-05 14:08 40.64497 -73.76766 19 ft 114 kts 211°
2026-05-05 14:08 40.63645 -73.77440 116 ft 166 kts 209°
2026-05-05 14:08 40.62623 -73.78265 810 ft 177 kts 211°
2026-05-05 14:09 40.61543 -73.78996 1855 ft 176 kts 213°
2026-05-05 14:09 40.60443 -73.79842 2513 ft 196 kts 218°
2026-05-05 14:09 40.59242 -73.80971 2785 ft 230 kts 220°
2026-05-05 14:09 40.57890 -73.82295 3477 ft 248 kts 219°
2026-05-05 14:10 40.56498 -73.83593 4682 ft 244 kts 216°
2026-05-05 14:10 40.54905 -73.84407 5685 ft 253 kts 189°
2026-05-05 14:10 40.53144 -73.84073 6740 ft 264 kts 162°
2026-05-05 14:10 40.51548 -73.82766 7694 ft 274 kts 149°
2026-05-05 14:11 40.50022 -73.81202 8582 ft 281 kts 148°
2026-05-05 14:11 40.48506 -73.79589 9519 ft 286 kts 148°
2026-05-05 14:11 40.46962 -73.77912 10392 ft 291 kts 148°
2026-05-05 14:11 40.45364 -73.76176 10854 ft 305 kts 147°
2026-05-05 14:12 40.43676 -73.74357 11307 ft 324 kts 147°
2026-05-05 14:12 40.41871 -73.72435 11561 ft 343 kts 147°
2026-05-05 14:12 40.39986 -73.70446 11887 ft 351 kts 147°
2026-05-05 14:12 40.37964 -73.68672 12730 ft 345 kts 161°
2026-05-05 14:13 40.35706 -73.67731 13620 ft 340 kts 175°
2026-05-05 14:13 40.33388 -73.67147 14361 ft 346 kts 175°
2026-05-05 14:13 40.31000 -73.66546 15149 ft 351 kts 175°
2026-05-05 14:13 40.28573 -73.65918 15960 ft 356 kts 174°
2026-05-05 14:14 40.26120 -73.65263 16765 ft 362 kts 174°
2026-05-05 14:14 40.23666 -73.64593 17495 ft 369 kts 173°
2026-05-05 14:14 40.21136 -73.63892 18260 ft 374 kts 173°
2026-05-05 14:14 40.18563 -73.63172 18960 ft 378 kts 173°
2026-05-05 14:15 40.15977 -73.62446 19656 ft 382 kts 173°
2026-05-05 14:15 40.13349 -73.61708 20344 ft 387 kts 173°
2026-05-05 14:15 40.10736 -73.60974 21038 ft 390 kts 173°
2026-05-05 14:15 40.08064 -73.60224 21727 ft 394 kts 173°
2026-05-05 14:16 40.05365 -73.59467 22411 ft 398 kts 172°
2026-05-05 14:16 40.02633 -73.58703 23073 ft 402 kts 172°
2026-05-05 14:16 39.99889 -73.57936 23680 ft 406 kts 172°
2026-05-05 14:16 39.97148 -73.57170 24223 ft 409 kts 172°
2026-05-05 14:17 39.94360 -73.56391 24789 ft 411 kts 172°
2026-05-05 14:17 39.91555 -73.55608 25329 ft 414 kts 172°
2026-05-05 14:17 39.88716 -73.54825 25859 ft 416 kts 174°
2026-05-05 14:17 39.85850 -73.54702 26313 ft 410 kts 194°
2026-05-05 14:18 39.83164 -73.55795 26862 ft 403 kts 210°
2026-05-05 14:18 39.80845 -73.57781 27387 ft 399 kts 223°
2026-05-05 14:18 39.78722 -73.60119 27862 ft 401 kts 224°
2026-05-05 14:18 39.76629 -73.62493 28292 ft 405 kts 224°
2026-05-05 14:19 39.74495 -73.64923 28743 ft 408 kts 224°
2026-05-05 14:19 39.72345 -73.67353 29292 ft 409 kts 224°
2026-05-05 14:19 39.70191 -73.69767 29806 ft 410 kts 224°
2026-05-05 14:19 39.68036 -73.72167 30175 ft 414 kts 224°
2026-05-05 14:20 39.65827 -73.74614 30498 ft 417 kts 223°
2026-05-05 14:20 39.63605 -73.77070 30825 ft 420 kts 223°
2026-05-05 14:20 39.61377 -73.79528 31173 ft 423 kts 223°
2026-05-05 14:20 39.59124 -73.82009 31509 ft 425 kts 223°
2026-05-05 14:21 39.56890 -73.84469 31866 ft 427 kts 223°
2026-05-05 14:21 39.54628 -73.86957 32328 ft 426 kts 222°
2026-05-05 14:21 39.52365 -73.89445 32832 ft 424 kts 222°
2026-05-05 14:21 39.50113 -73.91919 33281 ft 423 kts 222°
2026-05-05 14:22 39.47865 -73.94388 33686 ft 424 kts 221°
2026-05-05 14:22 39.46374 -73.96025 33956 ft 424 kts 221°
2026-05-05 14:22 39.43388 -73.99299 34469 ft 423 kts 221°
2026-05-05 14:22 39.41144 -74.01755 34838 ft 423 kts 222°
2026-05-05 14:23 39.39650 -74.03389 35066 ft 423 kts 222°
2026-05-05 14:23 39.37394 -74.05858 35392 ft 423 kts 222°
2026-05-05 14:23 39.34418 -74.09112 35896 ft 422 kts 222°
2026-05-05 14:23 39.32903 -74.10768 36150 ft 421 kts 222°
2026-05-05 14:24 39.30692 -74.13185 36485 ft 421 kts 222°
2026-05-05 14:24 39.28444 -74.15640 36807 ft 421 kts 222°
2026-05-05 14:24 39.26196 -74.18093 37158 ft 421 kts 222°
2026-05-05 14:24 39.23984 -74.20505 37504 ft 420 kts 222°
2026-05-05 14:25 39.21740 -74.22950 37822 ft 420 kts 222°
2026-05-05 14:25 39.19500 -74.25388 38142 ft 420 kts 222°
2026-05-05 14:25 39.17266 -74.27817 38452 ft 420 kts 222°
2026-05-05 14:25 39.15062 -74.30213 38778 ft 419 kts 222°
2026-05-05 14:26 39.12836 -74.32629 39032 ft 418 kts 222°
2026-05-05 14:26 39.10604 -74.35051 39247 ft 419 kts 222°
2026-05-05 14:26 39.08367 -74.37476 39437 ft 420 kts 222°
2026-05-05 14:26 39.06128 -74.39901 39629 ft 421 kts 222°
2026-05-05 14:27 39.03885 -74.42329 39898 ft 420 kts 222°
2026-05-05 14:27 39.01643 -74.44753 40008 ft 422 kts 222°
2026-05-05 14:27 38.97131 -74.49628 40005 ft 426 kts 222°
2026-05-05 14:28 38.92630 -74.54521 39998 ft 420 kts 224°
2026-05-05 14:28 38.88360 -74.59535 40015 ft 417 kts 225°
2026-05-05 14:29 38.84101 -74.64582 40011 ft 416 kts 225°
2026-05-05 14:29 38.79826 -74.69589 40014 ft 416 kts 225°
2026-05-05 14:30 38.75538 -74.74584 40011 ft 416 kts 225°
2026-05-05 14:30 38.71114 -74.79363 40016 ft 417 kts 221°
2026-05-05 14:31 38.66600 -74.83993 40021 ft 419 kts 221°
2026-05-05 14:31 38.62053 -74.88691 40020 ft 420 kts 221°
2026-05-05 14:32 38.57518 -74.93405 40018 ft 421 kts 222°
2026-05-05 14:32 38.52955 -74.98141 40023 ft 422 kts 222°
2026-05-05 14:33 38.48539 -75.03014 40035 ft 422 kts 224°
2026-05-05 14:33 38.44014 -75.07809 40033 ft 424 kts 220°
2026-05-05 14:34 38.39247 -75.12289 40027 ft 425 kts 219°
2026-05-05 14:34 38.34503 -75.16716 40037 ft 424 kts 219°
2026-05-05 14:35 38.29752 -75.21197 40036 ft 424 kts 219°
2026-05-05 14:35 38.25019 -75.25682 40035 ft 423 kts 219°
2026-05-05 14:36 38.20331 -75.30119 40035 ft 422 kts 219°
2026-05-05 14:36 38.15618 -75.34572 40034 ft 421 kts 219°
2026-05-05 14:37 38.10915 -75.39009 40038 ft 420 kts 219°
2026-05-05 14:37 38.06254 -75.43397 40038 ft 419 kts 219°
2026-05-05 14:38 38.01488 -75.47702 40051 ft 419 kts 217°
2026-05-05 14:38 37.96645 -75.51842 40046 ft 419 kts 217°
2026-05-05 14:39 37.91851 -75.55971 40054 ft 419 kts 217°
2026-05-05 14:39 37.87033 -75.60144 40057 ft 419 kts 217°
2026-05-05 14:40 37.82057 -75.63978 40055 ft 424 kts 208°
2026-05-05 14:40 37.76648 -75.67015 40054 ft 425 kts 207°
2026-05-05 14:41 37.71222 -75.70020 40065 ft 425 kts 207°
2026-05-05 14:41 37.65834 -75.73051 40065 ft 426 kts 207°
2026-05-05 14:42 37.60414 -75.76122 40065 ft 427 kts 207°
2026-05-05 14:42 37.54987 -75.79200 40055 ft 427 kts 207°
2026-05-05 14:43 37.49582 -75.82259 40068 ft 428 kts 207°
2026-05-05 14:43 37.44140 -75.85334 40066 ft 428 kts 207°
2026-05-05 14:44 37.38693 -75.88407 40071 ft 429 kts 207°
2026-05-05 14:44 37.33244 -75.91475 40060 ft 429 kts 207°
2026-05-05 14:45 37.27807 -75.94533 40079 ft 428 kts 207°
2026-05-05 14:45 37.22358 -75.97593 40079 ft 429 kts 207°
2026-05-05 14:46 37.16941 -76.00632 40082 ft 429 kts 207°
2026-05-05 14:46 37.11503 -76.03706 40069 ft 428 kts 210°
2026-05-05 14:47 37.06275 -76.07245 40082 ft 426 kts 213°
2026-05-05 14:47 37.01089 -76.10881 40089 ft 426 kts 213°
2026-05-05 14:48 36.95928 -76.14474 40074 ft 426 kts 213°
2026-05-05 14:48 36.90732 -76.18063 40085 ft 427 kts 212°
2026-05-05 14:49 36.85517 -76.21647 40080 ft 427 kts 213°
2026-05-05 14:49 36.80334 -76.25203 40085 ft 427 kts 212°
2026-05-05 14:50 36.75111 -76.28782 40112 ft 428 kts 212°
2026-05-05 14:50 36.69886 -76.32356 40110 ft 428 kts 212°
2026-05-05 14:51 36.64690 -76.35905 40105 ft 428 kts 213°
2026-05-05 14:51 36.59451 -76.39477 40112 ft 428 kts 213°
2026-05-05 14:52 36.54208 -76.43048 40120 ft 429 kts 213°
2026-05-05 14:52 36.49007 -76.46584 40121 ft 429 kts 213°
2026-05-05 14:53 36.43756 -76.50148 40112 ft 429 kts 213°
2026-05-05 14:53 36.38508 -76.53705 40115 ft 429 kts 213°
2026-05-05 14:54 36.33256 -76.57259 40131 ft 430 kts 213°
2026-05-05 14:54 36.28001 -76.60811 40131 ft 430 kts 213°
2026-05-05 14:55 36.22755 -76.64350 40122 ft 431 kts 213°
2026-05-05 14:55 36.17476 -76.67906 40136 ft 431 kts 213°
2026-05-05 14:56 36.12222 -76.71440 40137 ft 431 kts 213°
2026-05-05 14:56 36.06929 -76.74994 40138 ft 432 kts 213°
2026-05-05 14:57 36.01679 -76.78516 40135 ft 432 kts 213°
2026-05-05 14:57 35.96395 -76.82056 40130 ft 431 kts 213°
2026-05-05 14:58 35.91118 -76.85583 40136 ft 431 kts 213°
2026-05-05 14:58 35.85761 -76.88976 40131 ft 432 kts 211°
2026-05-05 14:59 35.80391 -76.92235 40155 ft 433 kts 211°
2026-05-05 14:59 35.74986 -76.95523 40148 ft 433 kts 212°
2026-05-05 15:00 35.70499 -76.98267 40143 ft 433 kts 212°
2026-05-05 15:00 35.64188 -77.02137 40153 ft 434 kts 212°
2026-05-05 15:01 35.58816 -77.05428 40149 ft 434 kts 212°
2026-05-05 15:01 35.53388 -77.08747 40132 ft 434 kts 212°
2026-05-05 15:02 35.47963 -77.12059 40141 ft 434 kts 212°
2026-05-05 15:02 35.42571 -77.15345 40149 ft 435 kts 212°
2026-05-05 15:03 35.37138 -77.18651 40149 ft 435 kts 212°
2026-05-05 15:03 35.31706 -77.21952 40153 ft 435 kts 212°
2026-05-05 15:04 35.26306 -77.25229 40150 ft 436 kts 212°
2026-05-05 15:04 35.20858 -77.28530 40161 ft 436 kts 212°
2026-05-05 15:05 35.12708 -77.33459 40158 ft 437 kts 212°
2026-05-05 15:06 35.07252 -77.36752 40147 ft 437 kts 212°
2026-05-05 15:06 35.01811 -77.40031 40159 ft 438 kts 212°
2026-05-05 15:07 34.96331 -77.43329 40167 ft 438 kts 212°
2026-05-05 15:07 34.90853 -77.46621 40166 ft 438 kts 212°
2026-05-05 15:08 34.85418 -77.49882 40146 ft 438 kts 212°
2026-05-05 15:08 34.79948 -77.53160 40159 ft 438 kts 212°
2026-05-05 15:09 34.74465 -77.56441 40167 ft 438 kts 212°
2026-05-05 15:09 34.69011 -77.59700 40149 ft 438 kts 213°
2026-05-05 15:10 34.63526 -77.62974 40154 ft 439 kts 213°
2026-05-05 15:10 34.58965 -77.65692 40148 ft 439 kts 213°
2026-05-05 15:11 34.52172 -77.68581 40164 ft 453 kts 199°
2026-05-05 15:11 34.46972 -77.69852 40153 ft 456 kts 198°
2026-05-05 15:12 34.40771 -77.71341 40154 ft 457 kts 198°
2026-05-05 15:12 34.34531 -77.72896 40136 ft 458 kts 199°
2026-05-05 15:13 34.27261 -77.74743 40154 ft 459 kts 199°
2026-05-05 15:13 34.22057 -77.76068 40157 ft 459 kts 199°
2026-05-05 15:14 34.15798 -77.77658 40154 ft 460 kts 199°
2026-05-05 15:14 34.09523 -77.79247 40138 ft 460 kts 199°
2026-05-05 15:15 34.03240 -77.80836 40152 ft 460 kts 199°
2026-05-05 15:15 33.96996 -77.82413 40160 ft 461 kts 199°
2026-05-05 15:16 33.90701 -77.84002 40165 ft 461 kts 199°
2026-05-05 15:16 33.84459 -77.85575 40148 ft 460 kts 199°
2026-05-05 15:17 33.78190 -77.87187 40155 ft 459 kts 201°
2026-05-05 15:17 33.72045 -77.89231 40163 ft 456 kts 204°
2026-05-05 15:18 33.65982 -77.91372 40159 ft 457 kts 204°
2026-05-05 15:18 33.59864 -77.93472 40141 ft 457 kts 204°
2026-05-05 15:19 33.53728 -77.95548 40154 ft 458 kts 204°
2026-05-05 15:19 33.47588 -77.97623 40145 ft 459 kts 204°
2026-05-05 15:20 33.41456 -77.99694 40167 ft 461 kts 204°
2026-05-05 15:20 33.35260 -78.01785 40138 ft 463 kts 204°
2026-05-05 15:21 33.29032 -78.03884 40164 ft 465 kts 204°
2026-05-05 15:21 33.22809 -78.05978 40165 ft 468 kts 204°
2026-05-05 15:22 33.16529 -78.08088 40164 ft 470 kts 204°
2026-05-05 15:22 33.10213 -78.10206 40123 ft 471 kts 204°
2026-05-05 15:23 33.03908 -78.12317 40145 ft 471 kts 204°
2026-05-05 15:23 32.97646 -78.14412 40153 ft 470 kts 204°
2026-05-05 15:24 32.91329 -78.16522 40153 ft 470 kts 204°
2026-05-05 15:24 32.85070 -78.18610 40154 ft 469 kts 204°
2026-05-05 15:25 32.78778 -78.20708 40157 ft 467 kts 204°
2026-05-05 15:25 32.72540 -78.22783 40156 ft 467 kts 204°
2026-05-05 15:26 32.66275 -78.24851 40156 ft 466 kts 204°
2026-05-05 15:26 32.60061 -78.26896 40128 ft 465 kts 204°
2026-05-05 15:27 32.53820 -78.28950 40145 ft 464 kts 204°
2026-05-05 15:27 32.47600 -78.30996 40156 ft 464 kts 204°
2026-05-05 15:28 32.41387 -78.33039 40155 ft 464 kts 204°
2026-05-05 15:28 32.35161 -78.35081 40159 ft 464 kts 204°
2026-05-05 15:29 32.28934 -78.37122 40152 ft 464 kts 204°
2026-05-05 15:29 32.22698 -78.39170 40163 ft 465 kts 204°
2026-05-05 15:30 32.16496 -78.41206 40159 ft 465 kts 204°
2026-05-05 15:30 32.10239 -78.43257 40159 ft 466 kts 204°
2026-05-05 15:31 32.03988 -78.45301 40155 ft 465 kts 204°
2026-05-05 15:31 31.97750 -78.47339 40155 ft 465 kts 204°
2026-05-05 15:32 31.91505 -78.49377 40152 ft 465 kts 204°
2026-05-05 15:32 31.85294 -78.51401 40156 ft 465 kts 204°
2026-05-05 15:33 31.79046 -78.53434 40149 ft 464 kts 204°
2026-05-05 15:33 31.72810 -78.55460 40152 ft 464 kts 204°
2026-05-05 15:34 31.66622 -78.57469 40161 ft 463 kts 204°
2026-05-05 15:34 31.60404 -78.59486 40160 ft 463 kts 204°
2026-05-05 15:35 31.54226 -78.61486 40133 ft 462 kts 204°
2026-05-05 15:35 31.48055 -78.63567 40153 ft 460 kts 205°
2026-05-05 15:36 31.41950 -78.65680 40156 ft 459 kts 205°
2026-05-05 15:36 31.35817 -78.67795 40154 ft 458 kts 205°
2026-05-05 15:37 31.29688 -78.69896 40124 ft 458 kts 205°
2026-05-05 15:37 31.23611 -78.71973 40151 ft 457 kts 205°
2026-05-05 15:38 31.17499 -78.74058 40161 ft 457 kts 205°
2026-05-05 15:38 31.11386 -78.76142 40159 ft 457 kts 205°
2026-05-05 15:39 31.05271 -78.78223 40159 ft 458 kts 205°
2026-05-05 15:39 30.99177 -78.80294 40155 ft 458 kts 205°
2026-05-05 15:40 30.93046 -78.82375 40155 ft 459 kts 205°
2026-05-05 15:40 30.86900 -78.84459 40159 ft 459 kts 205°
2026-05-05 15:41 30.80787 -78.86528 40153 ft 460 kts 205°
2026-05-05 15:41 30.74617 -78.88615 40121 ft 460 kts 206°
2026-05-05 15:42 30.68501 -78.90679 40145 ft 460 kts 206°
2026-05-05 15:42 30.62336 -78.92758 40159 ft 461 kts 206°
2026-05-05 15:43 30.56160 -78.94838 40153 ft 462 kts 206°
2026-05-05 15:43 30.49999 -78.96912 40154 ft 463 kts 206°
2026-05-05 15:44 30.43801 -78.98993 40149 ft 463 kts 207°
2026-05-05 15:44 30.37536 -79.00828 40150 ft 470 kts 202°
2026-05-05 15:45 30.31119 -79.02402 40150 ft 471 kts 202°
2026-05-05 15:45 30.24717 -79.04022 40151 ft 471 kts 203°
2026-05-05 15:46 30.18310 -79.05689 40149 ft 471 kts 203°
2026-05-05 15:46 30.11963 -79.07359 40139 ft 471 kts 204°
2026-05-05 15:47 30.05544 -79.09040 40149 ft 472 kts 204°
2026-05-05 15:47 29.99168 -79.10707 40143 ft 472 kts 204°
2026-05-05 15:48 29.92746 -79.12383 40111 ft 472 kts 204°
2026-05-05 15:48 29.86338 -79.14054 40133 ft 472 kts 204°
2026-05-05 15:49 29.79952 -79.15710 40146 ft 473 kts 204°
2026-05-05 15:49 29.73503 -79.17353 40145 ft 474 kts 204°
2026-05-05 15:50 29.67061 -79.18990 40134 ft 474 kts 204°
2026-05-05 15:50 29.60665 -79.20615 40139 ft 473 kts 204°
2026-05-05 15:51 29.54232 -79.22252 40142 ft 473 kts 204°
2026-05-05 15:51 29.47801 -79.23887 40135 ft 473 kts 204°
2026-05-05 15:52 29.41405 -79.25511 40141 ft 473 kts 204°
2026-05-05 15:52 29.34978 -79.27140 40132 ft 472 kts 204°
2026-05-05 15:53 29.28563 -79.28763 40127 ft 471 kts 204°
2026-05-05 15:53 29.22147 -79.30386 40134 ft 471 kts 204°
2026-05-05 15:54 29.15784 -79.31993 40125 ft 471 kts 204°
2026-05-05 15:54 29.09382 -79.33608 40091 ft 470 kts 204°
2026-05-05 15:55 29.02995 -79.35216 40116 ft 469 kts 204°
2026-05-05 15:55 28.96588 -79.36832 39616 ft 474 kts 204°
2026-05-05 15:55 28.93412 -79.37631 39120 ft 473 kts 204°
2026-05-05 15:56 28.90201 -79.38435 38550 ft 472 kts 204°
2026-05-05 15:56 28.86983 -79.39242 37914 ft 472 kts 204°
2026-05-05 15:56 28.83776 -79.40046 37330 ft 471 kts 204°
2026-05-05 15:56 28.80559 -79.40851 36720 ft 471 kts 204°
2026-05-05 15:57 28.77360 -79.41652 36148 ft 470 kts 204°
2026-05-05 15:57 28.74178 -79.42448 35704 ft 468 kts 203°
2026-05-05 15:57 28.71036 -79.43231 35227 ft 465 kts 203°
2026-05-05 15:57 28.67877 -79.44020 34794 ft 463 kts 203°
2026-05-05 15:58 28.64735 -79.44806 34333 ft 462 kts 203°
2026-05-05 15:58 28.61594 -79.45592 33835 ft 461 kts 203°
2026-05-05 15:58 28.58469 -79.46374 33361 ft 459 kts 202°
2026-05-05 15:58 28.55359 -79.47149 32913 ft 456 kts 202°
2026-05-05 15:59 28.52258 -79.47922 32438 ft 454 kts 202°
2026-05-05 15:59 28.49217 -79.48680 32014 ft 451 kts 202°
2026-05-05 15:59 28.46151 -79.49443 31584 ft 449 kts 202°
2026-05-05 15:59 28.43105 -79.50203 31141 ft 447 kts 202°
2026-05-05 16:00 28.41091 -79.50705 30848 ft 446 kts 202°
2026-05-05 16:00 28.38057 -79.51461 30413 ft 445 kts 201°
2026-05-05 16:00 28.35025 -79.52216 29931 ft 443 kts 201°
2026-05-05 16:00 28.32015 -79.52963 29447 ft 440 kts 201°
2026-05-05 16:01 28.29076 -79.53699 28980 ft 436 kts 202°
2026-05-05 16:01 28.26129 -79.54483 28453 ft 432 kts 202°
2026-05-05 16:01 28.23224 -79.55281 28044 ft 427 kts 202°
2026-05-05 16:01 28.20349 -79.56076 27612 ft 423 kts 202°
2026-05-05 16:02 28.17497 -79.56862 27176 ft 419 kts 202°
2026-05-05 16:02 28.14670 -79.57639 26729 ft 415 kts 202°
2026-05-05 16:02 28.11901 -79.58396 26310 ft 412 kts 202°
2026-05-05 16:02 28.09101 -79.59159 25875 ft 409 kts 202°
2026-05-05 16:03 28.06328 -79.59915 25444 ft 407 kts 202°
2026-05-05 16:03 28.03586 -79.60661 25004 ft 404 kts 202°
2026-05-05 16:03 28.00858 -79.61402 24577 ft 402 kts 202°
2026-05-05 16:03 27.98174 -79.62130 24135 ft 400 kts 202°
2026-05-05 16:04 27.95461 -79.62867 23597 ft 400 kts 202°
2026-05-05 16:04 27.92753 -79.63600 23029 ft 399 kts 201°
2026-05-05 16:04 27.90073 -79.64324 22568 ft 395 kts 201°
2026-05-05 16:04 27.87413 -79.65040 22330 ft 385 kts 201°
2026-05-05 16:05 27.84864 -79.65725 21766 ft 384 kts 201°
2026-05-05 16:05 27.82220 -79.66448 21024 ft 391 kts 200°
2026-05-05 16:05 27.79553 -79.67174 20374 ft 396 kts 200°
2026-05-05 16:05 27.76835 -79.67913 19741 ft 405 kts 199°
2026-05-05 16:06 27.74119 -79.68647 19061 ft 406 kts 199°
2026-05-05 16:06 27.71377 -79.69384 18425 ft 403 kts 198°
2026-05-05 16:06 27.68657 -79.70116 17730 ft 399 kts 198°
2026-05-05 16:06 27.65964 -79.70840 17063 ft 394 kts 198°
2026-05-05 16:07 27.63300 -79.71558 16449 ft 389 kts 198°
2026-05-05 16:07 27.60679 -79.72264 15849 ft 385 kts 197°
2026-05-05 16:07 27.58120 -79.72951 15265 ft 381 kts 197°
2026-05-05 16:07 27.55544 -79.73642 14675 ft 377 kts 197°
2026-05-05 16:08 27.53000 -79.74326 14076 ft 375 kts 197°
2026-05-05 16:08 27.50473 -79.75006 13431 ft 372 kts 197°
2026-05-05 16:08 27.47976 -79.75677 12804 ft 363 kts 196°
2026-05-05 16:08 27.45569 -79.76322 12220 ft 347 kts 196°
2026-05-05 16:09 27.43260 -79.76941 11675 ft 334 kts 195°
2026-05-05 16:09 27.41039 -79.77537 11154 ft 322 kts 195°
2026-05-05 16:09 27.38896 -79.78113 10784 ft 308 kts 196°
2026-05-05 16:09 27.36896 -79.78649 10666 ft 291 kts 196°
2026-05-05 16:10 27.34946 -79.79174 10534 ft 286 kts 195°
2026-05-05 16:10 27.33003 -79.79698 10428 ft 292 kts 196°
2026-05-05 16:10 27.30960 -79.80249 10312 ft 303 kts 196°
2026-05-05 16:10 27.28933 -79.80793 10169 ft 297 kts 195°
2026-05-05 16:11 27.26950 -79.81323 10024 ft 296 kts 195°
2026-05-05 16:11 27.20954 -79.82947 8973 ft 287 kts 200°
2026-05-05 16:12 27.19168 -79.83840 8632 ft 274 kts 210°
2026-05-05 16:12 27.15881 -79.85877 8010 ft 268 kts 210°
2026-05-05 16:13 27.10995 -79.88851 7086 ft 266 kts 208°
2026-05-05 16:13 27.09334 -79.89847 6779 ft 273 kts 208°
2026-05-05 16:13 27.07656 -79.90850 6452 ft 273 kts 207°
2026-05-05 16:14 27.04308 -79.92841 5775 ft 271 kts 207°
2026-05-05 16:14 27.01006 -79.94803 5131 ft 270 kts 207°
2026-05-05 16:15 26.97698 -79.96768 4481 ft 268 kts 207°
2026-05-05 16:15 26.94440 -79.98794 4056 ft 265 kts 214°
2026-05-05 16:16 26.91603 -80.01284 4013 ft 258 kts 217°
2026-05-05 16:16 26.88782 -80.03770 4010 ft 259 kts 216°
2026-05-05 16:17 26.85885 -80.06274 4009 ft 264 kts 217°
2026-05-05 16:17 26.84433 -80.07525 4004 ft 261 kts 216°
2026-05-05 16:18 26.81672 -80.09932 3983 ft 240 kts 220°
2026-05-05 16:18 26.80738 -80.11366 3975 ft 229 kts 252°
2026-05-05 16:18 26.80319 -80.14809 4005 ft 225 kts 266°
2026-05-05 16:19 26.80207 -80.16582 4011 ft 230 kts 266°
2026-05-05 16:19 26.80087 -80.18390 4004 ft 234 kts 266°
2026-05-05 16:19 26.79799 -80.22049 3988 ft 234 kts 264°
2026-05-05 16:20 26.78717 -80.25296 3718 ft 227 kts 231°
2026-05-05 16:20 26.76796 -80.28112 3312 ft 228 kts 232°
2026-05-05 16:21 26.74908 -80.30936 3056 ft 220 kts 233°
2026-05-05 16:22 26.71756 -80.33676 2924 ft 190 kts 166°
2026-05-05 16:22 26.69629 -80.32212 2491 ft 178 kts 119°
2026-05-05 16:23 26.69227 -80.29701 2128 ft 167 kts 94°
2026-05-05 16:23 26.69126 -80.28415 2053 ft 165 kts 92°
2026-05-05 16:23 26.68992 -80.25977 1998 ft 153 kts 91°
2026-05-05 16:24 26.68937 -80.24797 1991 ft 148 kts 90°
2026-05-05 16:24 26.68888 -80.23688 1986 ft 142 kts 91°
2026-05-05 16:24 26.68785 -80.21372 1879 ft 156 kts 92°
2026-05-05 16:25 26.68731 -80.20156 1689 ft 157 kts 91°
2026-05-05 16:25 26.68626 -80.17787 1291 ft 145 kts 91°
2026-05-05 16:25 26.68577 -80.16680 1081 ft 141 kts 92°
2026-05-05 16:26 26.68487 -80.14629 765 ft 126 kts 91°
2026-05-05 16:26 26.68404 -80.12677 429 ft 126 kts 89°
2026-05-05 16:27 26.68366 -80.11710 273 ft 122 kts 90°
2026-05-05 16:27 26.68320 -80.10787 117 ft 120 kts 92°
2026-05-05 16:27 26.68282 -80.09932 22 ft 104 kts 91°
2026-05-05 16:27 26.68255 -80.09288 21 ft 62 kts 92°
2026-05-05 16:28 26.68238 -80.08909 21 ft 32 kts 93°
2026-05-05 16:28 26.68237 -80.08714 22 ft 20 kts 74°
2026-05-05 16:28 26.68304 -80.08648 21 ft 10 kts 354°
2026-05-05 16:28 26.68318 -80.08654 21 ft 0 kts 329°
2026-05-05 16:29 26.68327 -80.08663 21 ft 5 kts 312°
2026-05-05 16:30 26.68361 -80.08717 22 ft 13 kts 343°
2026-05-05 16:30 26.68425 -80.08735 21 ft 6 kts 313°
2026-05-05 16:30 26.68432 -80.08750 21 ft 2 kts 289°
2026-05-05 16:30 26.68437 -80.08772 21 ft 4 kts 278°
2026-05-05 16:31 26.68438 -80.08818 21 ft 9 kts 272°
2026-05-05 16:31 26.68443 -80.08923 21 ft 18 kts 273°
2026-05-05 16:31 26.68449 -80.09058 21 ft 10 kts 274°
2026-05-05 16:31 26.68497 -80.09095 21 ft 10 kts
2026-05-05 16:32 26.68576 -80.09091 21 ft 12 kts
2026-05-05 16:32 26.68638 -80.09080 21 ft 8 kts 39°
2026-05-05 16:32 26.68641 -80.09025 21 ft 6 kts 93°
2026-05-05 16:32 26.68640 -80.09002 21 ft 2 kts 92°
2026-05-05 16:33 26.68639 -80.08993 21 ft 1 kts 92°